Regional Weather Roundup
Issued by NWS

Home | Current Version | Previous Version | Text Only | Print | Product List | Glossary On
Versions: 1 2 3 4 5 6 7 8 9 10 11 12 13 14 15 16 17 18 19 20 21 22 23 24 25 26 27 28 29 30 31 32 33 34 35 36 37 38 39 40 41 42 43 44 45 46 47 48 49 50
000
ASUS43 KDMX 030707
RWRIA

WEATHER ROUNDUP FOR IOWA
NATIONAL WEATHER SERVICE DES MOINES IA
200 AM CDT MON AUG 03 2015

NOTE: "FAIR" INDICATES FEW OR NO CLOUDS BELOW 12,000 FEET WITH NO
SIGNIFICANT WEATHER AND/OR OBSTRUCTIONS TO VISIBILITY.

* - THESE STATIONS ARE NOT NWS STATIONS...THUS NOT UNDER NWS
QUALITY CONTROL.  THEY ALSO DO NOT REPORT WEATHER SUCH
AS PRECIPITATION OR FOG.

IAZ001>003-012>014-020>022-031>034-043>046-030800-
   NORTHWEST IOWA

CITY           SKY/WX    TMP DP  RH WIND       PRES   REMARKS
CARROLL *      PTCLDY    66  63  88 N6        29.92R
CHEROKEE *     CLEAR     63  63 100 CALM      29.93F
DENISON *      PTCLDY    66  63  88 SE3       29.91R
LE MARS *      CLEAR     63  61  94 CALM      29.93F
ORANGE CITY *  CLEAR     61  59  94 CALM      29.95S
SHELDON *      CLEAR     59  57  94 N5        29.94R
SPENCER        CLEAR     61  55  81 N7        29.94R
STORM LAKE *   CLEAR     64  59  82 N7        29.94F
$$

IAZ055>058-069>071-079>083-090>094-030800-
   SOUTHWEST IOWA

CITY           SKY/WX    TMP DP  RH WIND       PRES   REMARKS
ATLANTIC *     CLEAR     68  66  94 NE5       29.92R
AUDUBON *      CLEAR     66  63  88 CALM      29.94R
CLARINDA *     MOCLDY    72  70  94 CALM      29.91R
COUNCIL BLFS * CLEAR     72  70  94 N8        29.90S
CRESTON *      MOCLDY    70  66  88 CALM      29.92R
HARLAN  *      CLEAR     66  66 100 CALM      29.95R
LAMONI         PTCLDY    67  63  87 N5        29.89S
RED OAK *      CLEAR     68  68 100 CALM      29.90R
SHENANDOAH *     N/A     73  72  94 NE5       29.88S
$$

IAZ047>049-059>061-072>074-084-030800-
   CENTRAL IOWA

CITY           SKY/WX    TMP DP  RH WIND       PRES   REMARKS
AMES           CLEAR     67  60  78 N9        29.88S
ANKENY *       CLEAR     68  61  77 N3        29.89R
CHARITON *     CLOUDY    68  63  83 NW6       29.90R
DES MOINES     PTCLDY    73  59  61 NE12      29.88R
GRINNELL*      CLEAR     66  61  82 NW7       29.88R
KNOXVILLE *    MOCLDY    66  63  88 CALM      29.88S
MARSHALLTOWN   PTCLDY    66  59  78 N9        29.87R
PELLA *        MOCLDY    68  68 100 CALM      29.89R
PERRY *          N/A     68  64  88 N5        29.90R
$$

IAZ004>006-015-016-023>025-035-036-030800-
   NORTH CENTRAL IOWA

CITY           SKY/WX    TMP DP  RH WIND       PRES   REMARKS
ALGONA *       CLEAR     63  57  82 NW5       29.93R
CLARION *      CLEAR     63  57  82 N8        29.90S
ESTHERVILLE    CLEAR     58  56  93 NW5       29.94R
FORT DODGE *   CLEAR     63  57  82 CALM      29.92R
MASON CITY     CLEAR     59  56  89 NW7       29.91S
FOREST CITY *  CLEAR     57  55  94 CALM      29.91R
IOWA FALLS *     N/A     64  57  77 N6        29.90S
$$

IAZ007>011-017>019-026>030-037>042-050>054-066-030800-
   NORTHEAST IOWA

CITY           SKY/WX    TMP DP  RH WIND       PRES   REMARKS
CEDAR RAPIDS   CLEAR     68  64  87 NW8       29.83R
CHARLES CITY * CLEAR     61  59  94 NW6       29.88S
CLINTON *      CLEAR     68  64  88 NW6       29.81S
DECORAH *      PTCLDY    66  57  72 NW7       29.85R
DUBUQUE        CLEAR     70  59  68 NW13      29.81R
MONTICELLO *   CLEAR     70  61  73 NW8       29.82R
OELWEIN *      CLEAR     63  61  94 NW6       29.87S
WATERLOO       CLEAR     65  59  81 NW10      29.85S
$$

IAZ064-065-067-068-078-030800-
   EAST CENTRAL IOWA

CITY           SKY/WX    TMP DP  RH WIND       PRES   REMARKS
DAVENPORT      CLEAR     69  64  84 NW7       29.80S
IOWA CITY      CLEAR     71  64  78 NW8       29.83S
MT. PLEASANT * PTCLDY    73  55  53 NW8       29.85R
MUSCATINE *    CLEAR     72  63  73 NW5       29.81R
QUAD CITIES    CLEAR     73  63  70 W8        29.79R
$$

IAZ062-063-075>077-085>089-095>099-030800-
   SOUTHEAST IOWA

CITY           SKY/WX    TMP DP  RH WIND       PRES   REMARKS
BURLINGTON     MOCLDY    71  62  73 NW9       29.83R
FAIRFIELD *    MOCLDY    68  61  77 NW10      29.86R
FORT MADISON * CLEAR     66  61  82 NW7       29.83R
KEOKUK *       CLEAR     72  59  64 W7        29.81R
OSKALOOSA *    MOCLDY    66  63  88 NW5       29.88R
CENTERVILLE *  CLEAR     66  63  88 W7        29.90R
OTTUMWA        CLEAR     68  63  84 W8        29.86R
WASHINGTON *   CLEAR     68  63  83 W7        29.85R
$$

ABBREVIATIONS USED IN REMARKS
   TC - TEMPERATURES IN CELSIUS
  WCI - WIND CHILL INDEX
   HX - HEAT INDEX
  VSB - VISIBILITY
$$



USA.gov is the U.S. government's official web portal to all federal, state and local government web resources and services.